Bend, OR

1:10 AM PST on December 07, 2019 (GMT -0800)
Bend Municipal

Weather History for KBDN - June, 2019

Change the Weather History Date:

Thursday, June 6, 2019

  Actual Average (KRDM) Record (KRDM)
Temperature  
Mean Temperature 52 °F -  
Max Temperature 62 °F 69 °F 97 °F (2016)
Min Temperature 42 °F 37 °F 29 °F (1963)
Degree Days  
Heating Degree Days 13    
Growing Degree Days 2 (Base 50)    
Moisture  
Dew Point 38 °F    
Average Humidity 64    
Maximum Humidity 94    
Minimum Humidity 25    
Precipitation  
Precipitation 0.10 in - - ()
Sea Level Pressure  
Sea Level Pressure 29.96 in    
Wind  
Wind Speed 5 mph (NNW)    
Max Wind Speed 17 mph    
Max Gust Speed 26 mph    
Visibility 10 miles    
Events Rain    
Averages and records for this station are not official NWS values.
T = Trace of Precipitation, MM = Missing Value Source: NWS Daily Summary

Daily Weather History Graph

Daily Weather History Graph

Search for Another Location

Airport or City:

Astronomy

Jun. 06, 2019 Rise Set
Actual Time 5:22 AM PDT 8:44 PM PDT
Civil Twilight 4:46 AM PDT 9:20 PM PDT
Nautical Twilight 3:59 AM PDT 10:07 PM PDT
Astronomical Twilight 3:01 AM PDT 11:06 PM PDT
Moon 8:37 AM PDT (6/6) No Moon Set
Length of Visible Light 16h 34m
Length of Day
15h 22m
Waxing Crescent, 14% of the Moon is Illuminated
Jun 6
Waxing Crescent
Jun 9
First Quarter
Jun 17
Full
Jun 25
Last Quarter
Jul 2
New

Hourly Weather History & Observations

Time (PDT) Temp. Windchill Dew Point Humidity Pressure Visibility Wind Dir Wind Speed Gust Speed Precip Events Conditions
12:15 AM 53.6 °F - 42.8 °F 67% 29.97 in 10.0 mi North 8.1 mph - N/A   Partly Cloudy
12:35 AM 51.8 °F - 41.0 °F 67% 29.98 in 10.0 mi North 5.8 mph - N/A   Clear
12:55 AM 51.8 °F - 42.8 °F 71% 29.98 in 10.0 mi North 5.8 mph - N/A   Light Drizzle
1:15 AM 50.0 °F - 44.6 °F 82% 29.98 in 5.0 mi NNW 4.6 mph - N/A Rain Light Rain
1:35 AM 50.0 °F - 44.6 °F 82% 29.97 in 6.0 mi Calm Calm - N/A Rain Light Rain
1:55 AM 50.0 °F - 44.6 °F 82% 29.97 in 6.0 mi Calm Calm - 0.04 in Rain Light Rain
2:15 AM 48.2 °F - 44.6 °F 87% 29.96 in 6.0 mi Calm Calm - N/A Rain Light Rain
2:35 AM 50.0 °F - 44.6 °F 82% 29.97 in 7.0 mi Calm Calm - N/A Rain Light Rain
2:55 AM 48.2 °F - 44.6 °F 87% 29.96 in 9.0 mi Calm Calm - 0.05 in Rain Light Rain
3:15 AM 48.2 °F - 44.6 °F 87% 29.96 in 9.0 mi Calm Calm - N/A   Light Drizzle
3:35 AM 48.2 °F - 44.6 °F 87% 29.96 in 10.0 mi Calm Calm - N/A   Light Drizzle
3:55 AM 48.2 °F - 46.4 °F 93% 29.95 in 10.0 mi Calm Calm - 0.01 in   Light Drizzle
4:15 AM 48.2 °F - 44.6 °F 87% 29.95 in 10.0 mi South 3.5 mph - N/A   Mostly Cloudy
4:35 AM 48.2 °F - 46.4 °F 93% 29.94 in 10.0 mi Calm Calm - N/A   Scattered Clouds
4:55 AM 48.2 °F - 46.4 °F 93% 29.94 in 10.0 mi Calm Calm - N/A   Clear
5:15 AM 48.2 °F - 46.4 °F 93% 29.94 in 10.0 mi Calm Calm - N/A   Clear
5:35 AM 48.2 °F - 44.6 °F 87% 29.94 in 10.0 mi Calm Calm - N/A   Scattered Clouds
5:55 AM 48.2 °F - 46.4 °F 93% 29.94 in 10.0 mi Calm Calm - N/A   Partly Cloudy
6:15 AM 48.2 °F - 46.4 °F 93% 29.94 in 10.0 mi Calm Calm - N/A   Partly Cloudy
6:35 AM 48.2 °F - 46.4 °F 93% 29.94 in 10.0 mi Calm Calm - N/A   Partly Cloudy
6:55 AM 50.0 °F - 46.4 °F 87% 29.94 in 10.0 mi Calm Calm - N/A   Scattered Clouds
7:15 AM 50.0 °F - 46.4 °F 87% 29.94 in 10.0 mi Calm Calm - N/A   Scattered Clouds
7:35 AM 50.0 °F - 46.4 °F 87% 29.93 in 10.0 mi Calm Calm - N/A   Mostly Cloudy
7:55 AM 50.0 °F - 48.2 °F 94% 29.93 in 10.0 mi Calm Calm - N/A   Overcast
8:15 AM 50.0 °F - 46.4 °F 87% 29.93 in 10.0 mi Calm Calm - N/A   Overcast
8:35 AM 50.0 °F - 46.4 °F 87% 29.93 in 10.0 mi Calm Calm - N/A   Mostly Cloudy
8:55 AM 50.0 °F - 46.4 °F 87% 29.93 in 10.0 mi NW 3.5 mph - N/A   Overcast
9:15 AM 51.8 °F - 46.4 °F 82% 29.93 in 10.0 mi NNE 5.8 mph - N/A   Overcast
9:35 AM 51.8 °F - 44.6 °F 76% 29.93 in 10.0 mi NNW 6.9 mph - N/A   Overcast
10:15 AM 51.8 °F - 42.8 °F 71% 29.93 in 10.0 mi NE 6.9 mph - N/A   Partly Cloudy
10:35 AM 53.6 °F - 42.8 °F 67% 29.93 in 10.0 mi North 5.8 mph - N/A   Mostly Cloudy
10:55 AM 53.6 °F - 42.8 °F 67% 29.93 in 10.0 mi Variable 5.8 mph - N/A   Mostly Cloudy
11:15 AM 55.4 °F - 42.8 °F 63% 29.92 in 10.0 mi North 6.9 mph - N/A   Overcast
11:35 AM 55.4 °F - 42.8 °F 63% 29.92 in 10.0 mi North 10.4 mph - N/A   Scattered Clouds
11:55 AM 55.4 °F - 39.2 °F 54% 29.93 in 10.0 mi North 9.2 mph - N/A   Mostly Cloudy
12:15 PM 57.2 °F - 37.4 °F 48% 29.92 in 10.0 mi NNW 10.4 mph 16.1 mph N/A   Mostly Cloudy
12:55 PM 57.2 °F - 35.6 °F 44% 29.92 in 10.0 mi North 10.4 mph - N/A   Mostly Cloudy
1:15 PM 59.0 °F - 35.6 °F 42% 29.91 in 10.0 mi NNW 8.1 mph 13.8 mph N/A   Mostly Cloudy
1:35 PM 59.0 °F - 33.8 °F 39% 29.91 in 10.0 mi NNE 12.7 mph 20.7 mph N/A   Mostly Cloudy
1:55 PM 57.2 °F - 32.0 °F 38% 29.91 in 10.0 mi NW 13.8 mph - N/A   Mostly Cloudy
2:15 PM 59.0 °F - 32.0 °F 36% 29.92 in 10.0 mi North 11.5 mph - N/A   Scattered Clouds
2:35 PM 60.8 °F - 32.0 °F 34% 29.91 in 10.0 mi North 15.0 mph 23.0 mph N/A   Clear
2:55 PM 60.8 °F - 28.4 °F 29% 29.92 in 10.0 mi WSW 10.4 mph 23.0 mph N/A   Scattered Clouds
3:15 PM 62.6 °F - 28.4 °F 27% 29.92 in 10.0 mi WSW 13.8 mph 19.6 mph N/A   Partly Cloudy
3:35 PM 60.8 °F - 30.2 °F 31% 29.92 in 10.0 mi NW 16.1 mph - N/A   Partly Cloudy
3:55 PM 59.0 °F - 28.4 °F 31% 29.93 in 10.0 mi NW 16.1 mph - N/A   Scattered Clouds
4:15 PM 59.0 °F - 28.4 °F 31% 29.93 in 10.0 mi NW 17.3 mph - N/A   Mostly Cloudy
4:35 PM 60.8 °F - 26.6 °F 27% 29.94 in 10.0 mi West 13.8 mph 20.7 mph N/A   Scattered Clouds
4:55 PM 60.8 °F - 24.8 °F 25% 29.95 in 10.0 mi West 11.5 mph 17.3 mph N/A   Partly Cloudy
5:15 PM 62.6 °F - 26.6 °F 26% 29.95 in 10.0 mi NW 12.7 mph 26.5 mph N/A   Scattered Clouds
5:35 PM 57.2 °F - 24.8 °F 29% 29.95 in 10.0 mi NW 15.0 mph - N/A   Mostly Cloudy
5:55 PM 57.2 °F - 24.8 °F 29% 29.96 in 10.0 mi NW 12.7 mph 19.6 mph N/A   Mostly Cloudy
6:15 PM 53.6 °F - 24.8 °F 33% 29.96 in 10.0 mi NW 13.8 mph - N/A   Scattered Clouds
6:35 PM 51.8 °F - 30.2 °F 44% 29.97 in 10.0 mi NNW 15.0 mph - N/A   Partly Cloudy
6:55 PM 51.8 °F - 32.0 °F 47% 29.99 in 10.0 mi NW 11.5 mph 23.0 mph N/A   Scattered Clouds
7:15 PM 50.0 °F - 33.8 °F 54% 29.99 in 10.0 mi NW 12.7 mph 19.6 mph N/A   Mostly Cloudy
7:35 PM 50.0 °F - 33.8 °F 54% 29.99 in 10.0 mi NW 15.0 mph - N/A   Mostly Cloudy
7:55 PM 48.2 °F - 33.8 °F 58% 29.99 in 10.0 mi NW 11.5 mph - N/A   Scattered Clouds
8:15 PM 48.2 °F - 33.8 °F 58% 30.00 in 10.0 mi NNW 10.4 mph - N/A   Partly Cloudy
8:35 PM 46.4 °F 41.9 °F 33.8 °F 62% 30.01 in 10.0 mi NW 9.2 mph - N/A   Clear
8:55 PM 46.4 °F 41.5 °F 33.8 °F 62% 30.01 in 10.0 mi NW 10.4 mph - N/A   Clear
9:15 PM 44.6 °F 40.2 °F 33.8 °F 66% 30.02 in 10.0 mi NW 8.1 mph 15.0 mph N/A   Clear
9:35 PM 44.6 °F 41.4 °F 33.8 °F 66% 30.03 in 10.0 mi NW 5.8 mph - N/A   Clear
9:55 PM 42.8 °F 41.1 °F 33.8 °F 70% 30.03 in 10.0 mi NNW 3.5 mph - N/A   Partly Cloudy
10:15 PM 42.8 °F - 33.8 °F 70% 30.03 in 10.0 mi Calm Calm - N/A   Mostly Cloudy
10:35 PM 42.8 °F - 33.8 °F 70% 30.03 in 10.0 mi Calm Calm - N/A   Unknown
10:55 PM 42.8 °F - 33.8 °F 70% 30.04 in 10.0 mi Calm Calm - N/A   Overcast
11:15 PM 44.6 °F - 33.8 °F 66% 30.04 in 10.0 mi Calm Calm - N/A   Overcast
11:35 PM 44.6 °F 43.1 °F 33.8 °F 66% 30.04 in 10.0 mi NNW 3.5 mph - N/A   Overcast
11:55 PM 42.8 °F - 32.0 °F 66% 30.04 in 10.0 mi Calm Calm - N/A   Overcast